Jamestown, NY

1:35 PM EDT on June 23, 2017 (GMT -0400)
Chautauqua County-Jamestown

Weather History for KJHW - November, 2011

Change the Weather History Date:

Saturday, November 19, 2011

  Actual Average Record
Temperature  
Mean Temperature 42 °F -  
Max Temperature 50 °F 44 °F 63 °F (1975)
Min Temperature 33 °F 26 °F 8 °F (2014)
Degree Days  
Heating Degree Days 24    
Moisture  
Dew Point 24 °F    
Average Humidity 47    
Maximum Humidity 71    
Minimum Humidity 39    
Precipitation  
Precipitation 0.00 in - - ()
Sea Level Pressure  
Sea Level Pressure 30.10 in    
Wind  
Wind Speed 14 mph (SSW)    
Max Wind Speed 18 mph    
Max Gust Speed 26 mph    
Visibility 10 miles    
Events      
Averages and records for this station are not official NWS values.
T = Trace of Precipitation, MM = Missing Value Source: NWS Daily Summary

Daily Weather History Graph

Daily Weather History Graph

Search for Another Location

Airport or City:

Trip Planner

Search our weather history database for the weather conditions in past years. The results will help you decide how hot, cold, wet, or windy it might be!

Date:

Astronomy

Nov. 19, 2011 Rise Set
Actual Time 7:11 AM EST 4:52 PM EST
Civil Twilight 6:41 AM EST 5:22 PM EST
Nautical Twilight 6:07 AM EST 5:56 PM EST
Astronomical Twilight 5:34 AM EST 6:30 PM EST
Moon 12:23 AM EST (11/19) 1:15 PM EST (11/19)
Length of Visible Light 10h 41m
Length of Day
9h 40m
Last Quarter, 38% of the Moon is Illuminated
Nov 19
Last Quarter
Nov 25
New
Dec 2
First Quarter
Dec 10
Full
Dec 17
Last Quarter

Hourly Weather History & Observations

Time (EST) Temp. Windchill Dew Point Humidity Pressure Visibility Wind Dir Wind Speed Gust Speed Precip Events Conditions
12:15 AM 35.6 °F 25.2 °F 15.8 °F 44% 30.15 in 10.0 mi SSW 18.4 mph 21.9 mph N/A   Mostly Cloudy
12:35 AM 35.6 °F 26.2 °F 15.8 °F 44% 30.14 in 10.0 mi South 15.0 mph 19.6 mph N/A   Mostly Cloudy
12:55 AM 35.6 °F 25.9 °F 15.8 °F 44% 30.14 in 10.0 mi SSW 16.1 mph - N/A   Mostly Cloudy
1:15 AM 35.6 °F 26.2 °F 15.8 °F 44% 30.14 in 10.0 mi SSW 15.0 mph 20.7 mph N/A   Overcast
1:35 AM 35.6 °F 26.2 °F 15.8 °F 44% 30.13 in 10.0 mi South 15.0 mph 20.7 mph N/A   Overcast
1:55 AM 35.6 °F 25.9 °F 15.8 °F 44% 30.14 in 10.0 mi South 16.1 mph - N/A   Overcast
2:15 AM 35.6 °F 25.9 °F 15.8 °F 44% 30.13 in 10.0 mi South 16.1 mph 19.6 mph N/A   Overcast
2:35 AM 35.6 °F 26.2 °F 15.8 °F 44% 30.13 in 10.0 mi South 15.0 mph 20.7 mph N/A   Overcast
2:55 AM 37.4 °F 30.3 °F 15.8 °F 41% 30.14 in 10.0 mi SSW 10.4 mph 21.9 mph N/A   Mostly Cloudy
3:15 AM 35.6 °F 28.6 °F 15.8 °F 44% 30.15 in 10.0 mi South 9.2 mph - N/A   Mostly Cloudy
3:35 AM 35.6 °F 27.5 °F 15.8 °F 44% 30.13 in 10.0 mi South 11.5 mph - N/A   Mostly Cloudy
4:15 AM 37.4 °F 28.9 °F 15.8 °F 41% 30.13 in 10.0 mi SSW 13.8 mph 17.3 mph N/A   Overcast
4:35 AM 37.4 °F 31.4 °F 15.8 °F 41% 30.14 in 10.0 mi South 8.1 mph - N/A   Overcast
4:55 AM 35.6 °F 29.9 °F 15.8 °F 44% 30.15 in 10.0 mi South 6.9 mph - N/A   Scattered Clouds
5:15 AM 35.6 °F 29.9 °F 15.8 °F 44% 30.15 in 10.0 mi South 6.9 mph - N/A   Partly Cloudy
5:35 AM 33.8 °F 27.7 °F 15.8 °F 48% 30.15 in 10.0 mi South 6.9 mph - N/A   Clear
5:55 AM 33.8 °F 27.7 °F 15.8 °F 48% 30.16 in 10.0 mi South 6.9 mph - N/A   Clear
6:15 AM 33.8 °F 27.7 °F 15.8 °F 48% 30.16 in 10.0 mi South 6.9 mph - N/A   Clear
6:35 AM 33.8 °F 27.7 °F 15.8 °F 48% 30.16 in 10.0 mi South 6.9 mph - N/A   Clear
6:55 AM 33.8 °F 27.0 °F 15.8 °F 48% 30.16 in 10.0 mi South 8.1 mph - N/A   Clear
7:35 AM 33.8 °F 26.4 °F 15.8 °F 48% 30.16 in 10.0 mi South 9.2 mph - N/A   Clear
7:55 AM 35.6 °F 28.6 °F 17.6 °F 48% 30.17 in 10.0 mi South 9.2 mph - N/A   Clear
8:15 AM 37.4 °F 29.8 °F 17.6 °F 45% 30.17 in 10.0 mi SSW 11.5 mph - N/A   Clear
8:35 AM 37.4 °F 32.1 °F 17.6 °F 45% 30.17 in 10.0 mi South 6.9 mph - N/A   Clear
9:15 AM 39.2 °F 33.0 °F 19.4 °F 45% 30.16 in 10.0 mi South 9.2 mph - N/A   Clear
9:35 AM 41.0 °F 33.9 °F 19.4 °F 42% 30.16 in 10.0 mi SSW 12.7 mph 20.7 mph N/A   Clear
9:55 AM 42.8 °F 35.1 °F 19.4 °F 39% 30.16 in 10.0 mi SSW 16.1 mph - N/A   Clear
10:15 AM 42.8 °F 35.8 °F 21.2 °F 42% 30.16 in 10.0 mi SSW 13.8 mph 20.7 mph N/A   Clear
10:35 AM 44.6 °F 36.9 °F 21.2 °F 39% 30.15 in 10.0 mi SSW 18.4 mph 21.9 mph N/A   Clear
10:55 AM 44.6 °F 37.8 °F 21.2 °F 39% 30.15 in 10.0 mi SSW 15.0 mph 24.2 mph N/A   Clear
11:15 AM 44.6 °F 37.8 °F 23.0 °F 43% 30.15 in 10.0 mi SSW 15.0 mph 20.7 mph N/A   Clear
11:55 AM 44.6 °F 37.4 °F 24.8 °F 46% 30.13 in 10.0 mi SSW 16.1 mph 23.0 mph N/A   Clear
12:15 PM 46.4 °F 40.4 °F 26.6 °F 46% 30.11 in 10.0 mi SSW 13.8 mph 23.0 mph N/A   Clear
12:35 PM 46.4 °F 39.8 °F 26.6 °F 46% 30.10 in 10.0 mi South 16.1 mph 20.7 mph N/A   Clear
12:55 PM 48.2 °F - 26.6 °F 43% 30.10 in 10.0 mi SSW 15.0 mph 21.9 mph N/A   Clear
1:15 PM 48.2 °F - 26.6 °F 43% 30.09 in 10.0 mi South 13.8 mph 21.9 mph N/A   Clear
1:35 PM 48.2 °F - 26.6 °F 43% 30.07 in 10.0 mi South 18.4 mph 21.9 mph N/A   Clear
1:55 PM 48.2 °F - 26.6 °F 43% 30.07 in 10.0 mi South 13.8 mph 20.7 mph N/A   Clear
2:35 PM 50.0 °F - 26.6 °F 40% 30.06 in 10.0 mi SSW 15.0 mph 21.9 mph N/A   Clear
2:55 PM 50.0 °F - 26.6 °F 40% 30.06 in 10.0 mi SSW 15.0 mph 25.3 mph N/A   Clear
3:15 PM 50.0 °F - 28.4 °F 43% 30.05 in 10.0 mi South 18.4 mph 24.2 mph N/A   Clear
3:35 PM 50.0 °F - 28.4 °F 43% 30.05 in 10.0 mi SSW 13.8 mph 18.4 mph N/A   Clear
3:55 PM 50.0 °F - 28.4 °F 43% 30.04 in 10.0 mi SSW 16.1 mph 21.9 mph N/A   Clear
4:15 PM 50.0 °F - 28.4 °F 43% 30.05 in 10.0 mi SSW 13.8 mph 19.6 mph N/A   Scattered Clouds
4:35 PM 50.0 °F - 28.4 °F 43% 30.04 in 10.0 mi South 15.0 mph 20.7 mph N/A   Mostly Cloudy
4:55 PM 50.0 °F - 28.4 °F 43% 30.04 in 10.0 mi South 10.4 mph 18.4 mph N/A   Overcast
5:15 PM 50.0 °F - 30.2 °F 47% 30.05 in 10.0 mi South 12.7 mph 18.4 mph N/A   Overcast
5:35 PM 50.0 °F - 30.2 °F 47% 30.06 in 10.0 mi SSW 10.4 mph - N/A   Overcast
5:55 PM 50.0 °F - 30.2 °F 47% 30.06 in 10.0 mi SSW 12.7 mph 18.4 mph N/A   Overcast
6:35 PM 50.0 °F - 33.8 °F 54% 30.06 in 10.0 mi SSW 13.8 mph 20.7 mph N/A   Overcast
6:55 PM 50.0 °F - 33.8 °F 54% 30.05 in 10.0 mi South 16.1 mph 26.5 mph N/A   Overcast
7:15 PM 48.2 °F - 35.6 °F 62% 30.06 in 10.0 mi South 12.7 mph 20.7 mph N/A   Overcast
7:35 PM 48.2 °F - 35.6 °F 62% 30.05 in 10.0 mi South 15.0 mph 20.7 mph N/A   Overcast
7:55 PM 48.2 °F - 35.6 °F 62% 30.05 in 10.0 mi SSW 13.8 mph 20.7 mph N/A   Overcast
8:15 PM 46.4 °F 40.4 °F 37.4 °F 71% 30.04 in 10.0 mi South 13.8 mph 20.7 mph N/A   Overcast
8:35 PM 46.4 °F 40.1 °F 35.6 °F 66% 30.04 in 10.0 mi South 15.0 mph - N/A   Overcast
8:55 PM 48.2 °F - 35.6 °F 62% 30.03 in 10.0 mi South 13.8 mph - N/A   Overcast
9:15 PM 48.2 °F - 33.8 °F 58% 30.01 in 10.0 mi South 15.0 mph 23.0 mph N/A   Overcast
9:35 PM 48.2 °F - 33.8 °F 58% 30.01 in 10.0 mi South 13.8 mph 20.7 mph N/A   Mostly Cloudy
9:55 PM 48.2 °F - 33.8 °F 58% 30.00 in 10.0 mi SSW 16.1 mph 20.7 mph N/A   Mostly Cloudy
10:15 PM 50.0 °F - 33.8 °F 54% 29.99 in 10.0 mi South 19.6 mph 32.2 mph N/A   Overcast
10:35 PM 51.8 °F - 33.8 °F 50% 29.98 in 10.0 mi SSW 18.4 mph 23.0 mph N/A   Overcast
10:55 PM 51.8 °F - 33.8 °F 50% 29.98 in 10.0 mi SSW 17.3 mph 28.8 mph N/A   Overcast
11:15 PM 51.8 °F - 33.8 °F 50% 29.98 in 10.0 mi SSW 13.8 mph 24.2 mph N/A   Overcast
11:35 PM 51.8 °F - 33.8 °F 50% 29.97 in 10.0 mi SSW 17.3 mph 23.0 mph N/A   Overcast
11:55 PM 51.8 °F - 33.8 °F 50% 29.97 in 10.0 mi SSW 16.1 mph 24.2 mph N/A   Overcast